1st Responders/1st Detectors/Storm Spotters Weather Summary for Carroll County, KY

Forecast Maps


Reg. NEXRAD Animation


National Fire Danger: Day 1 & 2 Map

Current NWS Watch/Warnings

SPC Convective Day 1 Outlook


Day 2 Outlook

(Click images to enlarge|Page will refresh every 5 minutes)
UK Ag. Weather Center Desktop Severe Weather Service[HERE]
Carroll County, KY Hazardous Weather Outlook Webcast
(9 AM to 9 PM Mon-Fri)
[Fast]
[Dial-up]


UKAWC 1st Detectors/1st Responders Precision Weather Forecast For CARROLL County, Kentucky
(based on the NWS County Digital Forecast)

ISSUED AT 21:00 UTC ON THURSDAY SEP 21 2017
DAY THURSDAY
EDT 3HR 6P 7P
MAX/MIN -- 88°
TEMP 88° 85°
SKY COVER 28% 22%
Clouds
DEW PT 70° 70°
RH 56% 62%
POP 12HR -- --
RAIN/SNOW (liq.equ) -- --
SNOWFALL -- --
WIND SPEED(MPH) 2 2
WIND Gust(MPH) 2 2
WIND DIR E E
DEW -- --
HeatIndex 94 90
Rain Showers Slight Chance --
Fog -- --
WIND CHILL -- --
SPRAY COND
DRY COND
LIVESTOCK HEATSTRESS 80.93 79.52



DAY FRIDAY SATURDAY SUNDAY MONDAY TUESDAY WEDNESDAY
EDT 6HR 8P 9P 10P 11P MIDN 1A 2A 3A 4A 5A 6A 7A 8A 9A 10A 11A NOON 1P 2P 3P 4P 5P 6P 7P 8P 9P 10P 11P MIDN 1A 2A 3A 4A 5A 8A 11A 2P 5P 8P 2A 8A 2P 8P 2A 8A 2P 8P 2A 8A 2P 8P 2A 8A 2P 8P
MAX/MIN -- -- -- -- -- -- -- -- -- -- -- -- 67° -- -- -- -- -- -- -- -- -- -- 88° -- -- -- -- -- -- -- -- -- -- 65° -- -- 90° -- -- 61° 88° -- -- 61° 85° -- -- 61° 85° -- -- 61° 81° --
TEMP 81° 79° 76° 74° 72° 72° 70° 70° 68° 67° 67° 67° 67° 70° 74° 79° 81° 83° 85° 86° 88° 88° 86° 83° 81° 76° 74° 72° 72° 70° 70° 67° 67° 67° 65° 79° 88° 90° 81° 67° 63° 85° 79° 65° 61° 83° 77° 67° 63° 83° 77° 67° 63° 79° 74°
SKY COVER 19% 18% 17% 16% 16% 17% 17% 18% 21% 23% 80% 80% 80% 31% 31% 32% 32% 33% 33% 32% 29% 28% 26% 23% 22% 20% 17% 15% 14% 12% 11% 13% 17% 19% 13% 9% 6% 5% 4% 6% 7% 8% 7% 9% 18% 23% 20% 14% 16% 27% 24% 25% 25% 38% 49%
Clouds
DEW PT 70° 70° 70° 70° 68° 67° 67° 67° 67° 65° 65° 65° 65° 67° 67° 67° 67° 67° 67° 67° 67° 67° 67° 67° 67° 67° 67° 67° 65° 65° 65° 65° 65° 63° 63° 65° 67° 65° 65° 63° 61° 63° 63° 61° 59° 63° 63° 61° 61° 63° 65° 61° 59° 63° 63°
RH 66% 73% 81% 84% 87% 87% 87% 90% 93% 93% 93% 97% 93% 87% 76% 68% 63% 58% 52% 51% 49% 50% 51% 56% 62% 70% 75% 81% 81% 87% 83% 89% 93% 89% 93% 60% 48% 43% 58% 87% 93% 48% 57% 84% 92% 50% 62% 83% 92% 52% 64% 83% 89% 58% 65%
POP 12HR 20% -- -- -- -- -- -- -- -- -- -- -- 10% -- -- -- -- -- -- -- -- -- -- -- 6% -- -- -- -- -- -- -- -- -- 0% -- -- -- 1% -- 2% -- 1% -- 3% -- 3% -- 5% -- 7% -- 9% -- 14%
RAIN/SNOW (liq.equ) 0.01in -- -- -- -- -- 0.00in -- -- -- -- -- 0.00in -- -- -- -- -- 0.00in -- -- -- -- -- 0.00in -- -- -- -- -- 0.00in -- -- -- 0.00in -- 0.00in -- 0.00in -- -- -- -- -- -- -- -- -- -- -- -- -- -- -- --
SNOWFALL 0in -- -- -- -- -- 0in -- -- -- -- -- 0in -- -- -- -- -- 0in -- -- -- -- -- 0in -- -- -- -- -- 0in -- -- -- 0in -- 0in -- 0in -- -- -- -- -- -- -- -- -- -- -- -- -- -- -- --
WIND SPEED(MPH) 2 1 1 1 1 1 1 1 1 1 1 1 1 1 1 1 2 2 2 5 5 5 5 2 1 1 1 1 1 1 1 1 1 1 0 0 1 1 0 0 0 1 1 0 0 0 0 0 0 0 0 0 0 2 2
WIND DIR E E E E E E SE E E E E E E E E E E E E E E E E NE NE E E E E E E E E E N NE E E NE E E NE NE NE NE NE NE NE N N NW NW N NW NW
HeatIndex 85 79 76 74 72 72 70 70 68 67 67 67 67 70 74 79 85 87 88 89 91 91 89 86 83 76 74 72 72 70 70 67 67 67 65 81 92 93 84 67 63 87 79 65 61 85 77 67 63 84 77 67 63 81 74
Rain Showers -- -- -- -- -- -- -- -- -- -- -- -- -- -- -- -- -- -- -- -- -- -- -- -- -- -- -- -- -- -- -- -- -- -- -- -- -- -- -- -- -- -- -- -- -- -- -- -- -- -- -- -- -- -- --
Fog -- -- -- -- -- -- -- Patchy Patchy Patchy Areas of Areas of Areas of Patchy -- -- -- -- -- -- -- -- -- -- -- -- -- -- -- -- -- -- -- -- -- -- -- -- -- -- -- -- -- -- -- -- -- -- -- -- -- -- -- -- --
WIND CHILL -- -- -- -- -- -- -- -- -- -- -- -- -- -- -- -- -- -- -- -- -- -- -- -- -- -- -- -- -- -- -- -- -- -- -- -- -- -- -- -- -- -- -- -- -- -- -- -- -- -- -- -- -- -- --
SPRAY COND
DRY COND
LIVESTOCK HEATSTRESS 76.85 76.00 74.20 72.66 71.06 71.06 69.20 69.38 67.65 66.68 66.68 66.86 66.68 69.20 71.99 75.44 76.48 77.41 78.08 78.67 79.81 79.97 78.67 77.14 76.36 73.16 71.91 70.62 70.62 69.20 68.95 66.50 66.68 66.50 64.76 74.56 79.65 80.22 75.87 66.41 62.84 77.51 74.22 64.45 60.90 76.34 73.20 66.23 62.82 76.61 73.40 66.23 62.75 74.33 71.07

Click on individual weather variable above in left-hand column (ie., TEMP, RH, QPF 12HR) to view state forecast maps






NWS 48 Hr. Forecast Maps,

Regional Hourly Observations For CARROLL County, Kentucky
Issued at 500 PM EDT THU SEP 21 2017
NORTHEAST KENTUCKY
  
CITY           SKY/WX    TMP DP  RH WIND       PRES   REMARKS
LEXINGTON      MOSUNNY   88  67  49 NE7       30.06F HX  91           
COVINGTON      MOSUNNY   87  71  58 SW3       30.05F HX  93           
FRANKFORT      MOSUNNY   88  67  49 E6        30.04F HX  91           


Current NOWCAST not available:
Nowcasts are not issued routinely during fair weather. Only when
precipitation or other significant weather is occuring in this county will these
forecasts be issued. Currently, there is no short term forecast in effect.


Fire Weather Forecast For CARROLL County, KY
Provided by the National Weather Service:

Issued at: Thu Sep 21 17:05:01 EDT 2017

CLOUD COVER                     PCldy        PCldy        PCldy
PRECIP TYPE                      None         None         None
CHANCE PRECIP (%)                   0            0            0
TEMP (24H TREND)              88 (+3)      65 (+1)           88
RH % (24H TREND)              54 (-2)      99 (-1)           49
20FTWND-AM(MPH)               Lgt/Var                   Lgt/Var
20FTWND-PM(MPH)               Lgt/Var      Lgt/Var      Lgt/Var
PRECIP AMOUNT                    0.00         0.00         0.00
PRECIP DURATION                                                
MIXING HGT(FT-AGL)               7250                      6420
TRANSPORT WND (MPH)             SW  0                     NE  8
LAL                                 1            1            1
HAINES INDEX                        3            3            4

REMARKS...None.

.FORECAST FOR DAYS 3 THROUGH 7...
.FRIDAY NIGHT...Mostly clear. Lows in the lower 60s. Light winds. 
.SATURDAY...Sunny. Highs in the upper 80s. Northeast winds around 5 mph. 
.SUNDAY...Mostly clear. Lows in the lower 60s. Highs in the upper 80s.
Northeast winds around 5 mph. 
.MONDAY...Mostly clear. Lows in the lower 60s. Highs in the mid 80s.
Northeast winds around 5 mph. 
.TUESDAY...Mostly clear. Lows in the lower 60s. Highs in the mid 80s.
North winds around 5 mph. 
.WEDNESDAY...Partly cloudy. Lows in the lower 60s. Highs in the lower 80s.
Northwest winds around 5 mph. 

SPC's Fire Weather Web Tool (Excellent!), SPC's Fire Weather Outlooks, NWS Fire Weather WEB, Fire Danger Class Map,
Keetch-Byram Drought Index, ROMAN Web, Haines Index ,
WFAS's 10-hr Dead Fuel Moist., WFAS's 100-hr Dead Fuel Moist., Probablity of Ignition, Visual blackness Map, Palmer Drought Index, HPC's Rainfall Forecast Maps


Hazardous Weather Outlook For CARROLL County, Kentucky
302 PM EDT Thu Sep 21 2017

 DAY ONE  This Afternoon and Tonight.

No hazardous weather is expected at this time.

 DAYS TWO THROUGH SEVEN  Friday through Wednesday.

No hazardous weather is expected at this time.

 SPOTTER INFORMATION STATEMENT  

Spotter activation is not expected at this time.

Latest CARROLL County, Kentucky Watches, Warnings and Advisories.
Additional Drought Info.: UKAWC Drought Page, Kentucky Drought Watch


7-Day Forecast For CARROLL County, KY

TONIGHT
Mostly clear. A slight chance of showers this evening. Patchy fog after midnight. Lows in the upper 60s. East winds around 5 mph this evening, becoming light and variable. Chance of rain 20 percent.

FRIDAY
Areas of fog in the morning. Partly cloudy. Humid with highs in the upper 80s. East winds around 5 mph.

FRIDAY NIGHT
Mostly clear. Lows in the mid 60s. Northeast winds around 5 mph in the evening, becoming light and variable.

SATURDAY
Sunny, hot with highs around 90. Light and variable winds, becoming east around 5 mph in the afternoon.

SATURDAY NIGHT
Clear. Lows in the lower 60s. Light and variable winds.

SUNDAY
Sunny, hot with highs around 90.

SUNDAY NIGHT
Clear. Lows in the lower 60s.

MONDAY
Mostly sunny. Highs in the upper 80s.

MONDAY NIGHT
Mostly clear. Lows in the lower 60s.

TUESDAY
Mostly sunny. Highs in the mid 80s.

TUESDAY NIGHT
Mostly clear. Lows in the lower 60s.

WEDNESDAY
Mostly sunny. Highs in the lower 80s.

WEDNESDAY NIGHT
Partly cloudy. Lows in the upper 50s.

THURSDAY
Partly cloudy. A chance of showers and thunderstorms in the afternoon. Highs in the lower 70s. Chance of rain 30 percent.

Ag Weather Center, Department of Biosystems & Agricultural Engineering, University of Kentucky